SCP
0 0 0 0 0 0 0 0 0 0 0 0 0 0 0 0 0 0 0 1 1 1 1 1 0 0 0 0 0 0 0 0 0 0 0 0 0 0 0 0 0 0 0
0 0 0 0 0 0 0 0 0 0 0 0 0 0 0 0 0 0 0 1 1 1 1 1 1 0 0 0 0 0 0 0 0 0 0 0 0 0 0 0 0 0 0
1 1 1 0 0 0 0 0 0 0 0 0 0 0 0 0 0 0 0 0 1 1 1 1 1 1 1 0 0 0 1 1 1 0 0 0 0 0 0 0 0 0 0
1 1 1 1 0 0 0 0 0 0 0 0 0 0 0 0 0 0 0 0 0 0 0 1 1 1 1 1 1 1 1 1 1 1 0 0 0 0 0 0 0 0 0
1 1 1 1 1 1 0 0 0 0 0 0 0 0 0 0 0 0 0 1 0 0 0 0 0 0 1 1 1 1 1 1 1 1 0 0 0 0 0 0 0 0 0
1 1 1 1 1 1 1 0 0 0 0 0 0 0 0 0 0 0 0 0 0 0 0 0 0 0 0 0 1 1 1 1 1 0 0 0 0 0 0 0 0 0 0
1 1 1 1 1 1 1 1 0 1 1 0 0 0 0 0 0 0 0 0 0 0 0 0 0 0 0 0 1 1 1 1 1 1 0 0 0 0 0 0 0 0 0
1 1 1 1 1 1 1 1 0 0 0 0 0 0 0 0 0 0 0 0 0 0 0 0 0 0 0 0 0 1 1 1 1 1 0 0 0 0 0 0 0 0 0
1 1 1 1 1 1 1 0 0 0 0 0 0 0 0 0 0 0 0 0 0 0 0 0 0 0 0 0 0 0 0 0 0 0 0 0 0 0 0 0 0 0 0
1 1 1 1 1 0 0 0 0 0 0 0 0 0 0 0 0 0 0 0 0 0 0 0 0 0 0 0 0 0 0 0 0 0 0 0 0 0 0 0 0 0 0
1 1 1 1 1 0 0 0 1 1 0 0 0 0 0 0 0 0 0 0 0 0 0 0 0 0 0 0 0 0 0 0 0 0 0 0 0 0 0 0 0 0 0
1 1 0 1 1 1 1 1 1 1 0 0 0 0 0 0 0 0 0 0 0 0 0 0 0 0 0 0 0 0 0 0 0 0 0 0 0 0 0 0 0 0 0
1 1 1 1 1 1 1 1 1 1 1 0 0 0 0 0 0 0 0 0 0 0 0 0 0 0 0 0 0 0 0 0 0 0 0 0 0 0 0 0 0 0 0
1 1 1 1 1 1 1 1 1 1 1 1 0 0 0 0 0 0 0 0 0 0 0 0 0 0 0 0 0 0 0 0 0 0 0 0 0 0 0 0 0 0 0
1 1 1 1 1 1 1 1 1 1 1 1 0 0 0 0 0 0 0 0 0 0 0 0 0 0 0 0 0 0 0 0 0 0 0 0 0 0 0 0 0 0 0
1 1 1 1 1 1 1 1 1 0 1 1 0 0 0 0 0 0 0 0 0 0 0 0 0 0 0 0 0 0 0 0 0 0 0 0 0 0 0 0 0 0 0
0 0 0 0 0 0 0 0 0 0 0 0 0 0 0 0 0 0 0 0 0 0 0 0 0 0 0 0 0 0 0 0 0 0 0 0 0 0 0 0 0 0 0
0 0 0 0 0 0 0 0 0 0 0 0 0 0 0 0 0 0 0 0 0 0 0 0 0 0 0 0 0 0 0 0 0 0 0 0 0 0 0 0 0 0 0
0 0 0 0 0 0 0 0 0 0 0 0 0 0 0 0 0 0 0 0 0 0 0 0 0 0 0 0 0 0 0 0 0 0 0 0 0 0 0 0 0 0 0
0 0 0 0 0 0 0 0 0 0 0 0 0 0 0 0 0 0 0 0 0 0 0 0 0 0 0 0 0 0 0 0 0 0 0 0 0 0 0 0 0 0 0
0 0 0 0 0 0 0 0 0 0 0 0 0 0 0 0 0 0 0 0 0 0 0 0 0 0 0 0 0 0 0 0 0 0 0 0 0 0 0 0 0 0 0
0 0 0 0 0 0 0 0 0 0 0 0 0 0 0 0 0 0 0 0 0 0 0 0 0 0 0 0 0 0 0 0 0 0 0 0 0 0 0 0 0 0 0
0 0 0 0 0 0 0 0 0 0 0 0 0 0 0 0 0 0 0 0 0 0 0 0 0 0 0 0 0 0 0 0 0 0 0 0 0 0 0 0 0 0 0
0 0 0 0 0 0 0 0 0 0 0 0 0 0 0 0 0 0 0 0 0 0 0 0 0 0 0 0 0 0 0 0 0 0 0 0 0 0 0 0 0 0 0
0 0 0 0 0 0 0 0 0 0 0 0 0 0 0 0 0 0 0 0 0 0 0 0 0 0 0 0 0 0 0 0 0 0 0 0 0 0 0 0 0 0 0
0 0 0 0 0 0 0 0 0 0 0 0 0 0 0 0 0 0 0 0 0 0 0 0 0 0 0 0 0 0 0 0 0 0 0 0 0 0 0 0 0 0 0
Wind_Speed
1 1 1 2 3 2 3 3 3 3 2 2 3 3 2 2 2 2 4 12 13 12 12 11 10 10 9 8 8 8 8 8 8 7 7 7 7 7 7 6 5 5 5
1 1 2 2 2 1 2 2 2 1 1 1 2 2 2 3 2 2 3 7 11 12 12 11 10 9 9 9 8 8 8 8 8 8 8 7 7 7 7 7 6 6 5
2 2 2 2 2 2 2 1 1 1 2 2 2 3 2 2 1 1 2 3 6 10 11 10 9 9 9 9 9 9 8 8 8 8 9 8 8 7 7 7 7 7 6
3 2 2 2 2 2 1 1 1 1 2 2 2 3 2 2 3 2 2 2 3 5 8 11 10 9 9 9 10 10 9 8 8 8 9 9 9 9 8 7 7 7 7
3 2 2 1 2 2 2 2 2 2 2 2 3 3 3 3 2 3 2 3 3 3 5 8 11 11 11 10 9 10 10 9 8 8 9 9 9 9 8 8 8 7 7
3 2 2 2 2 2 2 1 1 1 2 2 4 3 2 3 2 3 3 3 3 4 4 6 6 8 11 11 10 10 10 10 9 9 9 9 8 8 8 8 8 8 7
2 2 2 1 2 1 2 2 2 2 2 2 2 3 3 4 4 3 3 3 3 3 3 4 5 4 5 11 11 10 10 10 9 9 10 9 9 8 8 8 8 8 8
3 3 2 2 2 2 2 2 2 2 3 2 1 2 2 2 2 4 3 4 3 3 3 5 5 4 4 4 7 10 10 10 9 9 9 9 9 9 9 9 9 8 8
3 2 2 2 2 2 2 3 3 3 2 2 2 2 1 1 1 2 4 3 3 2 3 3 5 5 5 4 5 8 9 8 8 9 8 8 8 9 10 10 10 9 9
3 3 3 3 2 2 2 3 3 2 2 2 2 2 2 1 1 2 2 3 3 3 4 4 4 4 5 4 5 8 9 9 9 9 9 9 8 9 10 10 11 10 10
2 3 3 2 2 2 3 3 2 3 2 3 2 2 3 2 3 2 2 2 2 3 4 3 2 3 4 4 5 7 10 10 10 10 10 10 9 10 9 10 10 10 10
2 3 3 2 3 3 3 3 2 3 3 3 3 2 2 2 2 2 3 3 3 3 3 3 3 3 4 4 6 9 11 11 11 10 10 10 10 10 10 10 10 10 11
2 3 3 3 3 3 3 3 3 4 4 4 4 3 3 3 2 2 2 3 3 3 2 3 4 4 4 3 4 10 11 12 12 11 10 10 9 9 10 10 10 10 11
2 2 3 3 4 4 5 4 3 5 4 4 6 4 3 4 3 3 2 2 3 3 2 3 2 3 3 3 5 9 7 11 11 11 11 10 10 9 9 10 10 10 10
3 3 3 3 4 4 4 4 4 5 4 5 5 5 4 4 3 3 2 2 3 4 4 3 2 3 3 3 6 5 5 9 11 11 12 11 11 10 10 10 10 10 10
2 2 3 3 4 4 5 4 4 5 5 5 4 5 5 4 3 3 3 3 3 3 4 3 3 2 3 3 5 4 5 8 11 12 12 12 12 12 11 11 11 11 11
2 3 4 3 4 4 5 5 6 6 6 5 5 5 5 5 3 3 3 3 4 3 4 4 3 2 3 3 3 3 4 5 6 11 12 12 13 13 12 12 12 12 11
3 3 3 4 5 5 4 5 6 6 6 6 6 6 5 5 5 3 3 4 4 4 4 4 3 2 3 3 4 4 5 6 5 9 12 13 13 13 13 13 12 12 12
3 3 3 4 4 5 5 5 6 6 6 6 5 6 5 5 5 4 4 4 4 4 3 3 3 3 3 3 3 4 5 3 5 7 10 12 14 14 14 14 13 13 12
3 3 4 4 5 5 5 4 4 5 5 5 5 5 5 5 5 5 5 4 4 4 3 3 3 3 3 3 3 3 3 3 4 5 5 7 9 13 14 14 14 14 13
3 3 4 4 4 4 4 3 3 4 3 3 4 4 5 5 6 5 5 3 4 3 3 3 3 3 3 2 3 3 3 3 4 4 3 4 4 5 7 11 13 14 14
3 3 3 4 4 4 1 2 2 3 3 4 4 4 5 6 6 7 7 6 5 5 4 3 4 4 4 4 3 3 3 3 3 2 3 3 3 4 5 6 10 14 15
3 3 4 4 3 3 2 3 3 3 4 4 4 4 5 5 4 4 5 6 6 7 7 6 6 6 5 4 4 4 4 4 4 3 3 4 4 5 5 6 10 13 14
3 3 4 4 3 3 3 4 4 4 4 4 4 4 4 4 4 3 4 4 5 5 6 6 5 6 6 4 4 5 5 5 4 4 4 4 4 4 4 4 9 12 14
3 4 4 4 3 2 3 4 4 4 4 5 5 5 4 4 4 4 3 4 5 5 7 8 8 9 9 9 7 4 4 4 5 4 4 3 3 3 3 3 5 10 12
4 5 5 4 3 3 4 5 5 3 3 3 3 3 4 4 4 5 4 4 5 5 5 5 6 7 8 8 10 8 6 5 5 4 4 3 3 2 2 2 3 4 5
Wind_Direction
211 190 209 206 214 193 193 216 221 221 235 244 255 240 223 231 222 180 157 164 164 168 174 183 191 195 197 197 198 200 203 207 205 200 196 197 199 198 196 198 199 203 206
200 206 212 229 241 211 195 216 230 237 245 256 278 288 268 254 210 157 168 169 171 173 178 185 192 199 204 204 202 203 204 208 208 205 201 198 197 197 196 198 199 198 201
200 206 219 222 233 227 202 189 228 257 251 244 252 258 258 254 253 164 184 175 176 183 186 189 193 199 207 209 208 207 206 206 208 208 206 202 199 196 196 198 198 200 202
207 216 222 226 218 218 191 181 207 241 256 263 251 248 248 228 228 218 210 200 182 184 191 196 197 200 204 208 211 211 209 208 209 210 212 210 206 200 199 199 199 200 204
210 226 234 203 213 205 194 228 195 217 244 260 256 242 242 241 218 236 221 218 198 190 181 194 201 202 202 205 208 211 214 212 211 213 215 215 211 205 203 203 200 200 201
210 231 236 194 223 200 194 223 229 233 243 246 270 261 245 242 227 233 225 221 199 209 192 186 193 202 204 204 206 209 211 212 212 216 220 216 211 207 203 202 202 204 206
204 220 251 199 221 201 189 198 206 234 238 231 262 270 256 235 225 228 220 227 215 210 197 189 193 194 196 204 205 205 209 212 213 216 220 216 211 205 201 202 205 209 210
205 218 215 223 221 198 200 202 206 236 242 215 231 264 262 249 243 234 217 218 215 196 204 211 198 191 194 185 198 205 211 212 214 216 221 218 215 212 209 209 210 212 213
199 222 207 238 238 222 204 203 212 224 240 232 216 221 243 257 279 243 227 219 199 199 211 207 198 194 198 183 183 199 200 201 208 218 221 219 219 219 217 217 216 214 214
204 212 203 216 232 241 218 220 206 228 238 250 238 234 239 226 243 266 256 226 206 216 221 226 212 193 194 183 187 186 193 196 203 213 216 218 222 224 223 224 223 219 218
206 210 198 203 217 236 225 228 218 215 222 238 250 239 246 245 231 244 262 259 245 226 214 209 221 206 204 195 183 189 191 195 201 210 215 218 223 228 227 226 225 224 223
204 204 199 198 215 229 227 228 223 224 230 238 250 255 238 237 237 240 256 256 248 244 221 204 207 206 209 202 196 186 188 194 199 206 213 218 223 228 229 230 228 229 228
219 208 206 201 217 226 223 218 217 232 227 231 241 253 256 252 246 244 252 265 266 260 238 225 211 202 210 188 186 186 190 194 198 205 210 216 221 226 230 232 231 232 231
223 199 204 207 219 226 230 219 225 230 222 222 234 237 251 256 250 248 247 260 274 269 246 235 225 211 206 187 188 189 190 195 198 202 207 212 216 221 225 228 230 232 232
229 208 210 215 227 230 233 224 234 236 230 226 233 234 239 250 249 246 245 239 251 271 262 239 231 219 205 190 183 192 188 197 201 203 206 209 213 217 222 224 227 230 227
248 240 234 232 236 234 233 229 236 238 232 228 229 232 233 243 248 244 244 245 240 253 265 249 240 217 205 215 199 199 196 200 208 210 211 211 213 217 220 223 225 227 224
249 247 248 245 245 240 232 230 234 236 231 233 235 234 232 240 246 245 239 242 246 246 258 265 247 222 212 219 202 207 205 209 210 211 212 214 217 218 220 221 223 223 222
258 258 254 252 250 246 237 236 240 240 236 233 233 234 230 233 232 240 243 243 246 243 245 255 257 237 234 217 199 209 222 226 217 214 214 215 217 218 218 220 221 220 219
270 267 264 260 255 254 248 243 243 239 235 235 233 233 230 229 229 228 238 247 252 256 243 247 256 245 236 221 211 229 233 228 235 226 217 215 215 216 217 218 219 219 218
267 267 267 263 260 261 260 256 251 246 239 240 240 235 234 228 226 226 234 238 250 260 253 246 249 247 233 216 208 222 235 224 236 239 226 220 221 219 217 217 218 217 217
285 280 275 266 265 263 268 272 264 260 252 253 252 242 241 233 220 218 234 233 247 255 252 247 247 255 246 220 220 224 236 236 234 227 221 223 214 217 219 219 219 218 216
287 286 284 279 276 282 291 292 278 275 260 255 257 254 250 232 216 216 225 229 230 240 249 249 252 247 246 236 233 236 239 240 246 219 217 240 217 223 221 214 214 211 212
299 299 291 281 269 269 243 241 248 256 265 261 256 251 257 254 223 224 227 230 235 240 239 240 244 247 244 235 235 242 237 236 248 236 230 244 230 234 234 227 212 209 210
297 294 290 285 276 268 232 228 235 239 253 257 252 245 242 244 236 225 235 239 243 243 242 246 249 255 255 242 236 239 242 250 250 239 223 240 236 238 243 223 208 209 211
286 283 280 273 267 262 227 222 225 239 244 250 252 251 240 229 213 220 238 246 255 257 255 257 257 256 252 243 236 234 234 238 249 250 227 230 238 243 238 236 216 211 211
280 281 282 276 265 250 215 216 222 242 247 249 247 241 239 230 213 213 233 247 256 263 271 275 263 255 246 239 228 220 225 228 236 244 226 218 232 241 250 236 207 195 205